Wind_Speed
57 52 46 44 44 38 40 45 51 55 55 57 54 54 48 48 45 47 46 47 47 47 47 47 47 48 47 48 50 51 51 51 53 55 57 59 59 62 63 66 67 69 70
57 49 45 41 39 39 38 40 43 44 42 40 41 41 41 43 45 44 40 41 41 41 43 45 47 48 47 47 48 49 51 51 52 54 56 61 66 66 68 71 74 76 78
58 47 42 40 37 38 41 41 40 36 35 35 35 37 42 42 41 40 40 40 40 40 40 40 42 43 43 45 48 50 54 55 55 57 58 60 64 69 74 77 80 81 83
57 49 42 40 38 38 37 35 34 32 34 34 37 40 41 40 39 38 39 41 41 40 41 43 45 47 49 51 52 55 58 61 64 65 66 67 68 70 71 80 85 87 89
55 48 40 40 39 37 35 35 36 34 34 33 35 37 38 38 40 40 42 44 44 43 44 46 50 52 55 57 59 61 63 66 69 72 74 75 76 77 75 73 81 89 93
55 50 42 42 41 39 38 40 39 38 37 36 39 39 41 41 43 45 45 45 46 47 48 50 53 57 61 64 66 68 71 74 76 79 80 80 82 84 85 81 81 81 87
55 49 44 44 42 42 42 44 42 40 40 40 40 43 42 43 45 48 48 48 50 52 55 58 61 64 67 70 73 76 79 83 86 86 86 87 87 86 86 85 84 86 91
56 48 43 44 44 45 46 47 45 44 44 42 43 44 45 47 49 51 51 53 55 59 62 64 68 71 74 77 80 84 88 92 92 92 91 89 89 90 93 96 97 93 92
55 49 44 47 47 47 48 48 48 46 46 46 47 48 52 52 52 52 55 57 60 64 68 71 75 77 80 83 86 91 95 97 96 93 92 93 95 98 100 99 96 94 89
54 49 49 50 48 49 50 48 50 49 49 49 50 51 52 54 55 55 59 62 65 70 74 79 82 84 87 90 94 99 99 97 95 95 96 98 100 101 101 102 103 102 100
54 51 50 51 50 51 50 50 52 52 50 51 52 54 56 57 58 61 64 67 72 77 81 84 88 91 93 97 101 101 97 95 97 99 101 102 101 102 102 102 102 105 110
53 52 51 52 51 51 51 53 54 52 52 53 55 58 59 61 64 67 70 73 79 83 87 90 94 96 100 104 102 97 96 98 99 101 102 102 101 102 104 106 109 114 119
53 52 53 53 52 52 52 54 54 52 53 56 59 61 63 66 69 73 75 81 85 89 91 96 99 103 105 101 97 97 99 100 101 101 102 101 102 106 111 116 120 124 127
53 53 54 54 53 52 53 54 53 55 57 60 63 64 67 70 74 77 82 86 90 93 97 100 104 105 99 97 98 99 100 100 102 101 102 107 112 117 121 124 127 129 129
54 53 53 54 52 52 54 55 56 59 61 63 65 68 71 75 79 82 87 91 94 98 102 105 103 96 96 97 98 97 98 98 99 106 111 117 122 126 128 130 129 125 117
54 52 52 52 53 55 57 58 61 63 64 67 70 72 76 80 83 87 90 94 99 103 105 98 95 96 98 97 97 96 95 102 108 114 119 124 128 130 131 126 120 115 107
52 51 51 53 56 58 60 62 64 66 69 71 74 78 80 83 87 90 94 99 102 102 94 94 96 97 96 95 93 98 104 111 118 122 125 129 130 126 118 110 107 104 100
51 53 54 57 58 60 63 65 67 70 72 75 78 81 83 87 90 95 99 102 96 92 93 95 94 94 92 94 99 106 113 119 125 128 131 129 119 114 107 102 99 96 90
52 53 55 58 59 62 65 68 70 73 76 78 80 83 86 90 95 99 98 91 91 92 92 93 91 89 96 101 108 114 119 124 129 132 129 119 110 105 100 96 89 86 83
52 54 55 58 60 61 62 66 71 74 77 79 82 86 91 95 97 93 89 88 90 90 90 88 90 96 102 110 116 120 125 128 128 126 119 112 107 100 94 87 82 79 76
53 54 56 58 59 62 64 67 71 74 78 82 86 91 94 93 87 86 87 87 87 87 85 90 96 103 110 115 121 127 131 129 122 117 109 103 98 92 86 82 77 72 68
55 56 57 59 62 65 68 71 74 79 83 87 90 90 85 83 83 85 84 84 81 83 89 95 102 109 116 122 127 131 130 123 116 109 102 96 89 85 81 77 69 64 60
55 58 60 62 66 68 72 76 80 84 87 87 81 79 80 82 82 81 80 79 83 89 95 101 107 113 120 125 129 128 120 113 108 101 95 88 83 80 74 67 62 58 54
57 60 63 67 70 74 77 81 83 81 77 76 77 79 79 78 78 75 77 83 88 94 101 105 111 118 124 126 123 115 109 103 99 94 88 83 79 74 67 61 56 52 46
63 66 69 72 75 76 75 74 72 72 73 75 76 75 73 70 72 77 83 89 96 101 105 110 116 122 123 120 111 105 99 95 90 84 82 78 71 64 60 55 50 44 39
66 67 67 66 66 67 67 68 70 71 73 73 68 64 65 70 76 83 90 96 100 106 111 118 123 123 118 108 102 98 94 88 83 80 76 70 64 58 52 47 43 38 34
Wind_Direction
235 237 239 241 243 244 248 249 251 250 253 255 257 260 261 269 271 280 283 288 285 284 287 286 286 287 290 289 290 290 289 289 289 289 289 288 286 285 284 282 280 278 277
234 234 238 239 240 242 244 247 246 246 249 252 256 260 265 270 277 277 280 284 285 286 285 284 285 286 289 291 292 292 292 291 291 290 289 288 287 284 283 281 280 278 276
232 231 237 239 240 242 246 246 242 246 248 251 256 263 269 270 269 274 276 277 278 282 284 286 288 290 291 292 294 295 295 296 294 292 291 290 288 287 287 285 283 281 279
228 227 230 238 240 242 240 239 241 243 248 252 258 260 263 265 269 269 272 275 279 281 284 290 293 294 295 296 298 299 300 299 297 295 292 288 285 283 283 286 286 284 282
225 224 226 234 237 235 235 238 240 240 244 249 255 258 262 264 267 272 275 278 282 286 291 293 294 296 296 297 299 298 298 299 299 298 296 293 289 286 281 275 275 279 280
220 220 222 229 231 232 232 236 238 241 246 249 253 259 262 268 273 276 279 283 285 288 290 293 296 295 295 296 299 300 301 301 300 298 296 294 292 291 289 286 281 276 276
217 217 220 225 228 229 231 236 241 243 249 254 258 261 266 272 276 280 281 284 287 291 294 296 299 299 299 299 300 301 302 303 303 300 298 296 294 292 290 288 286 284 282
215 216 218 224 226 228 232 237 242 246 252 256 261 265 270 273 276 279 281 285 290 293 296 299 300 300 300 301 303 303 304 304 303 301 300 298 297 296 295 294 291 288 287
213 214 217 224 225 229 234 238 244 249 254 258 264 267 270 274 276 278 281 287 290 294 297 299 300 301 302 303 304 305 305 304 303 302 301 301 300 299 298 297 297 295 290
211 214 216 222 226 231 236 241 247 252 257 261 265 270 273 274 277 280 284 289 293 296 297 300 302 304 305 305 306 306 305 304 303 303 302 301 300 300 299 298 296 296 295
209 214 216 221 227 233 238 245 251 256 261 263 268 271 273 276 279 284 287 292 294 296 299 301 304 305 306 305 306 306 305 304 304 303 302 302 302 300 298 298 298 298 297
209 216 218 223 228 235 241 249 254 259 262 266 269 271 274 278 283 285 290 294 295 298 302 304 305 306 306 306 306 306 305 304 303 302 303 302 301 301 302 301 300 299 298
210 217 223 225 230 237 244 252 257 262 266 269 272 273 277 281 284 289 293 294 298 302 303 305 306 306 306 306 305 305 304 304 304 304 303 303 304 303 302 301 300 300 298
215 218 225 229 235 241 248 254 259 264 268 272 274 276 280 284 289 291 294 298 301 302 304 305 305 305 305 305 305 304 305 305 305 306 306 305 304 303 302 301 301 301 300
219 222 226 231 238 245 252 257 261 265 270 274 277 280 284 287 289 293 297 299 301 303 304 305 305 305 305 305 305 306 306 306 307 306 305 304 303 303 304 304 304 303 301
223 228 230 236 244 249 255 260 264 268 272 275 279 283 286 289 292 295 298 301 302 303 303 304 304 304 304 306 308 308 308 308 306 305 304 305 305 306 307 306 306 304 303
227 232 236 241 247 253 259 263 267 270 274 277 281 285 288 291 294 297 300 301 302 303 304 304 304 306 307 308 309 310 308 307 305 306 307 307 308 309 308 308 307 306 307
232 237 243 248 253 258 262 266 269 273 276 279 283 287 290 293 296 298 300 301 303 303 304 305 307 308 309 310 309 308 308 307 308 308 309 310 311 311 311 310 309 308 308
237 242 247 252 257 262 266 269 272 275 278 282 286 289 293 296 297 299 300 302 303 303 305 307 308 309 309 309 309 308 309 308 308 311 312 313 313 312 312 311 310 309 308
242 248 253 257 261 266 270 272 274 278 282 285 290 293 295 297 298 300 301 302 304 305 307 309 309 309 309 310 310 309 308 309 313 314 315 315 314 313 313 313 313 311 310
246 252 257 261 265 269 273 277 279 282 287 290 292 294 295 297 299 300 302 304 305 307 309 308 308 309 310 311 311 311 312 314 316 315 315 314 314 315 315 314 314 312 311
251 257 263 267 272 275 278 281 285 287 289 291 292 294 296 298 300 302 304 305 306 307 307 309 310 311 312 312 313 314 315 316 316 315 316 316 316 317 316 315 315 313 313
259 263 266 270 275 279 282 284 286 288 289 292 294 296 298 300 302 303 305 306 307 308 309 310 311 312 312 313 314 315 316 316 315 316 318 318 318 317 316 316 316 316 315
266 269 273 276 279 281 283 285 286 289 291 293 295 298 300 301 303 304 305 306 307 309 310 311 313 313 313 314 315 316 316 316 315 318 319 319 318 318 318 318 318 318 318
269 272 275 277 279 282 285 286 288 292 293 296 297 299 301 303 305 306 307 308 309 310 312 313 313 313 314 316 317 317 317 317 318 320 319 318 318 319 320 320 319 319 319
272 275 278 280 282 284 287 289 292 296 296 297 299 301 303 304 306 307 309 310 311 314 315 316 316 316 317 318 319 319 318 320 320 320 318 320 320 321 321 320 319 320 319
Height
10679 10688 10694 10697 10701 10704 10708 10713 10715 10717 10719 10720 10720 10720 10721 10720 10718 10716 10713 10710 10707 10704 10701 10699 10696 10693 10689 10684 10680 10675 10672 10670 10664 10657 10651 10645 10643 10636 10632 10625 10621 10616 10612
10670 10680 10686 10688 10691 10696 10701 10704 10705 10708 10710 10711 10711 10711 10711 10710 10708 10707 10704 10702 10698 10695 10692 10690 10687 10683 10679 10674 10669 10664 10660 10657 10653 10647 10642 10634 10625 10624 10619 10611 10604 10600 10592
10660 10671 10677 10680 10684 10688 10692 10694 10696 10700 10702 10703 10703 10702 10702 10701 10699 10697 10696 10693 10689 10687 10684 10680 10677 10674 10670 10665 10660 10654 10647 10642 10640 10636 10629 10624 10616 10607 10595 10590 10581 10578 10570
10650 10662 10667 10672 10676 10680 10683 10686 10688 10692 10693 10694 10694 10694 10694 10693 10691 10688 10686 10683 10680 10678 10674 10671 10667 10663 10658 10653 10647 10642 10635 10628 10622 10616 10613 10607 10603 10597 10594 10572 10557 10550 10543
10642 10653 10660 10664 10667 10672 10676 10679 10681 10683 10685 10685 10686 10685 10685 10684 10681 10679 10677 10674 10671 10668 10664 10660 10656 10650 10644 10638 10633 10627 10621 10614 10606 10598 10589 10582 10576 10572 10573 10574 10555 10535 10523
10630 10642 10650 10655 10659 10664 10668 10671 10673 10675 10676 10677 10677 10677 10677 10674 10672 10669 10666 10663 10660 10656 10653 10648 10642 10636 10630 10623 10616 10609 10602 10594 10587 10578 10569 10560 10550 10541 10534 10534 10532 10529 10515
10619 10632 10640 10647 10652 10655 10659 10662 10665 10666 10668 10668 10667 10667 10667 10664 10661 10658 10654 10651 10647 10643 10639 10633 10627 10621 10614 10606 10598 10590 10581 10572 10562 10553 10543 10533 10524 10516 10507 10502 10499 10493 10483
10611 10624 10633 10638 10643 10648 10652 10655 10657 10658 10659 10658 10658 10657 10656 10653 10650 10647 10643 10640 10635 10630 10624 10618 10612 10604 10596 10588 10579 10569 10558 10547 10536 10526 10516 10506 10494 10484 10474 10466 10460 10462 10452
10603 10616 10625 10629 10634 10640 10644 10647 10649 10650 10650 10649 10648 10647 10645 10642 10639 10636 10633 10628 10622 10615 10609 10602 10595 10586 10578 10569 10558 10546 10534 10521 10510 10498 10488 10478 10466 10455 10442 10429 10418 10412 10420
10600 10608 10615 10620 10627 10631 10635 10638 10639 10640 10639 10639 10638 10636 10634 10631 10627 10624 10620 10615 10608 10600 10593 10585 10576 10567 10558 10547 10535 10523 10510 10497 10484 10473 10462 10451 10439 10426 10412 10400 10388 10374 10364
10593 10600 10608 10613 10618 10623 10626 10629 10629 10630 10629 10628 10627 10625 10622 10619 10616 10611 10606 10600 10593 10585 10577 10567 10557 10547 10536 10524 10512 10498 10486 10474 10461 10448 10435 10423 10411 10398 10384 10371 10359 10346 10328
10585 10594 10600 10605 10610 10614 10617 10618 10619 10620 10620 10618 10616 10613 10610 10607 10603 10597 10591 10584 10576 10568 10558 10548 10537 10525 10514 10501 10487 10475 10463 10450 10436 10422 10410 10396 10384 10369 10354 10342 10329 10314 10298
10579 10587 10593 10598 10602 10605 10607 10608 10610 10610 10610 10607 10604 10601 10598 10593 10588 10582 10575 10566 10557 10548 10539 10528 10516 10503 10490 10476 10463 10453 10440 10425 10411 10397 10384 10369 10356 10343 10327 10311 10295 10280 10263
10573 10580 10585 10590 10594 10597 10599 10600 10601 10600 10598 10595 10592 10589 10584 10579 10573 10566 10558 10549 10540 10529 10519 10507 10494 10481 10468 10455 10443 10430 10416 10400 10386 10371 10355 10341 10326 10312 10296 10280 10260 10242 10224
10565 10573 10579 10583 10586 10588 10590 10590 10590 10589 10587 10584 10580 10575 10570 10564 10557 10550 10542 10532 10521 10510 10498 10485 10471 10458 10447 10433 10421 10408 10395 10378 10363 10347 10331 10313 10295 10277 10259 10239 10220 10195 10178
10561 10567 10573 10576 10578 10579 10580 10580 10579 10577 10574 10571 10567 10562 10556 10549 10541 10533 10524 10513 10502 10489 10476 10463 10452 10437 10424 10411 10398 10385 10370 10354 10337 10322 10304 10285 10265 10246 10227 10201 10177 10154 10140
10557 10562 10565 10567 10568 10569 10570 10570 10568 10565 10561 10558 10553 10547 10541 10534 10525 10516 10505 10493 10481 10468 10454 10442 10429 10415 10402 10389 10375 10361 10346 10329 10309 10290 10272 10254 10232 10211 10192 10173 10147 10126 10109
10551 10553 10557 10558 10560 10560 10559 10558 10556 10553 10549 10544 10539 10533 10526 10517 10507 10497 10486 10473 10460 10448 10434 10421 10408 10395 10380 10367 10354 10340 10322 10300 10279 10258 10236 10217 10200 10175 10157 10142 10122 10101 10087
10543 10547 10548 10549 10550 10550 10548 10546 10544 10540 10535 10530 10524 10516 10508 10498 10488 10478 10466 10453 10441 10428 10414 10402 10388 10374 10360 10345 10331 10315 10296 10275 10253 10228 10201 10182 10166 10147 10130 10116 10098 10078 10064
10536 10538 10539 10540 10539 10539 10537 10534 10530 10526 10521 10514 10507 10499 10489 10480 10469 10457 10446 10434 10422 10408 10395 10380 10368 10354 10339 10321 10303 10284 10265 10248 10227 10198 10170 10152 10134 10118 10104 10088 10073 10056 10043
10528 10529 10529 10529 10528 10526 10524 10521 10516 10511 10504 10497 10489 10480 10471 10461 10450 10439 10428 10416 10403 10389 10376 10364 10349 10333 10315 10295 10274 10250 10225 10206 10191 10167 10150 10132 10113 10095 10079 10065 10053 10039 10025
10519 10519 10518 10518 10516 10513 10510 10505 10501 10494 10488 10480 10472 10462 10453 10443 10432 10421 10409 10398 10387 10374 10360 10346 10328 10308 10287 10266 10246 10222 10196 10174 10156 10139 10124 10108 10090 10074 10060 10045 10034 10022 10011
10510 10509 10508 10506 10503 10499 10495 10490 10483 10477 10470 10462 10453 10444 10435 10425 10414 10403 10391 10379 10368 10355 10341 10326 10309 10290 10266 10244 10222 10198 10173 10154 10132 10114 10101 10085 10070 10055 10044 10030 10017 10006 9997
10498 10497 10494 10491 10488 10484 10479 10473 10467 10460 10452 10444 10436 10427 10417 10407 10396 10385 10375 10363 10350 10336 10321 10305 10288 10266 10241 10221 10200 10176 10155 10135 10113 10096 10078 10065 10052 10037 10025 10015 10003 9994 9985
10485 10483 10481 10477 10473 10468 10462 10455 10449 10443 10435 10427 10418 10409 10400 10389 10378 10367 10356 10342 10327 10314 10301 10284 10263 10241 10218 10195 10173 10152 10133 10115 10095 10079 10064 10050 10038 10025 10013 10001 9992 9984 9977
10470 10467 10464 10460 10455 10451 10445 10439 10433 10426 10418 10410 10401 10392 10384 10375 10364 10351 10335 10320 10306 10288 10270 10249 10228 10206 10184 10169 10151 10129 10110 10094 10077 10063 10050 10037 10024 10013 10002 9993 9984 9977 9971